• In United Kingdom
  • List of Countries
  • For 7 days
  • Water Temperature
  • Satellite Maps
  • Weather Map
  • Weather Widgets
  • user-avatar
    Login

    Hourly Weather Mendoza

    Today, 17 January, Wednesday

    Time Temperature Precipitation Wind Pressure Humidity
    00:00 +25°C° 0.1 mm 2 mps 699 mmHg 57%
    01:00 +25°C° 0.1 mm 2 mps 698 mmHg 59%
    02:00 +24°C° 0.3 mm 2 mps 698 mmHg 59%
    03:00 +24°C° 0.3 mm 2 mps 698 mmHg 58%
    04:00 +23°C° 0.3 mm 2 mps 698 mmHg 58%
    05:00 +24°C° 0.2 mm 3 mps 699 mmHg 53%
    06:00 +25°C° 0.2 mm 3 mps 699 mmHg 49%
    07:00 +26°C° 0.2 mm 3 mps 699 mmHg 45%
    08:00 +27°C° 0.2 mm 4 mps 700 mmHg 43%
    09:00 +28°C° 0.2 mm 4 mps 700 mmHg 42%
    10:00 +29°C° 0.2 mm 5 mps 700 mmHg 40%
    11:00 +29°C° 0.4 mm 5 mps 699 mmHg 39%
    12:00 +30°C° 0.4 mm 4 mps 699 mmHg 38%
    13:00 +30°C° 0.4 mm 4 mps 699 mmHg 36%
    14:00 +32°C° 0.1 mm 4 mps 698 mmHg 36%
    15:00 +31°C° 0.1 mm 3 mps 698 mmHg 35%
    16:00 +31°C° 0.1 mm 3 mps 698 mmHg 34%
    17:00 +30°C° 0.2 mm 3 mps 698 mmHg 36%
    18:00 +30°C° 0.2 mm 3 mps 698 mmHg 38%
    19:00 +29°C° 0.2 mm 2 mps 699 mmHg 40%
    20:00 +28°C° 0.2 mm 2 mps 699 mmHg 44%
    21:00 +28°C° 0.2 mm 2 mps 699 mmHg 47%
    22:00 +27°C° 0.2 mm 2 mps 700 mmHg 51%
    23:00 +27°C° 0.4 mm 2 mps 699 mmHg 53%

    Tomorrow, 18 January, Thursday

    Time Temperature Precipitation Wind Pressure Humidity
    00:00 +26°C° 0.4 mm 1 mps 699 mmHg 55%
    01:00 +26°C° 0.4 mm 1 mps 699 mmHg 57%
    02:00 +25°C° 0.3 mm 1 mps 699 mmHg 58%
    03:00 +25°C° 0.3 mm 2 mps 699 mmHg 59%
    04:00 +24°C° 0.3 mm 2 mps 699 mmHg 60%
    05:00 +25°C° 0.7 mm 2 mps 699 mmHg 58%
    06:00 +25°C° 0.7 mm 2 mps 700 mmHg 57%
    07:00 +26°C° 0.7 mm 3 mps 700 mmHg 55%
    08:00 +27°C° 0.6 mm 3 mps 700 mmHg 51%
    09:00 +28°C° 0.6 mm 3 mps 700 mmHg 47%
    10:00 +29°C° 0.6 mm 2 mps 700 mmHg 42%
    11:00 +30°C° 0.2 mm 3 mps 700 mmHg 40%
    12:00 +31°C° 0.2 mm 3 mps 699 mmHg 38%
    13:00 +31°C° 0.2 mm 3 mps 699 mmHg 36%
    14:00 +31°C° 0.3 mm 3 mps 699 mmHg 37%
    15:00 +31°C° 0.3 mm 3 mps 698 mmHg 37%
    16:00 +31°C° 0.3 mm 2 mps 698 mmHg 37%
    17:00 +30°C° 0.5 mm 2 mps 698 mmHg 40%
    18:00 +30°C° 0.5 mm 2 mps 699 mmHg 43%
    19:00 +29°C° 0.5 mm 2 mps 699 mmHg 45%
    20:00 +29°C° 1.1 mm 2 mps 699 mmHg 47%
    21:00 +28°C° 1.1 mm 3 mps 699 mmHg 49%
    22:00 +27°C° 1.1 mm 4 mps 700 mmHg 50%
    23:00 +27°C° 0.8 mm 3 mps 699 mmHg 51%

    Day after tomorrow, 19 January, Friday

    Time Temperature Precipitation Wind Pressure Humidity
    00:00 +26°C° 0.8 mm 3 mps 699 mmHg 52%
    01:00 +26°C° 0.8 mm 2 mps 699 mmHg 53%
    02:00 +25°C° 0.4 mm 2 mps 699 mmHg 53%
    03:00 +25°C° 0.4 mm 2 mps 699 mmHg 53%
    04:00 +24°C° 0.4 mm 2 mps 699 mmHg 53%
    05:00 +25°C° 0.2 mm 1 mps 699 mmHg 50%
    06:00 +26°C° 0.2 mm 1 mps 699 mmHg 46%
    07:00 +27°C° 0.2 mm 1 mps 700 mmHg 43%
    08:00 +28°C° 0.1 mm 2 mps 700 mmHg 41%
    09:00 +29°C° 0.1 mm 3 mps 700 mmHg 39%
    10:00 +30°C° 0.1 mm 4 mps 700 mmHg 37%
    11:00 +32°C° 0.2 mm 4 mps 699 mmHg 36%
    12:00 +33°C° 0.2 mm 5 mps 699 mmHg 34%
    13:00 +34°C° 0.2 mm 6 mps 698 mmHg 33%
    14:00 +34°C° 0.3 mm 6 mps 698 mmHg 33%
    15:00 +34°C° 0.3 mm 6 mps 698 mmHg 32%
    16:00 +35°C° 0.3 mm 6 mps 697 mmHg 32%
    17:00 +34°C° 0.4 mm 5 mps 697 mmHg 34%
    18:00 +33°C° 0.4 mm 5 mps 697 mmHg 36%
    19:00 +32°C° 0.4 mm 4 mps 697 mmHg 38%
    20:00 +30°C° 1.6 mm 4 mps 697 mmHg 44%
    21:00 +28°C° 1.6 mm 4 mps 697 mmHg 50%
    22:00 +27°C° 1.6 mm 4 mps 697 mmHg 56%
    23:00 +26°C° 2.5 mm 4 mps 697 mmHg 61%

    20 January, Saturday

    Time Temperature Precipitation Wind Pressure Humidity
    00:00 +25°C° 2.5 mm 4 mps 697 mmHg 65%
    01:00 +24°C° 2.5 mm 3 mps 696 mmHg 70%
    02:00 +24°C° 0.6 mm 3 mps 696 mmHg 69%
    03:00 +24°C° 0.6 mm 2 mps 696 mmHg 68%
    04:00 +24°C° 0.6 mm 1 mps 696 mmHg 67%
    05:00 +24°C° 0.2 mm 1 mps 696 mmHg 65%
    06:00 +25°C° 0.2 mm 1 mps 697 mmHg 62%
    07:00 +25°C° 0.2 mm 1 mps 697 mmHg 59%
    08:00 +26°C° 0.8 mm 2 mps 697 mmHg 56%
    09:00 +27°C° 0.8 mm 2 mps 696 mmHg 52%
    10:00 +28°C° 0.8 mm 3 mps 696 mmHg 49%
    11:00 +29°C° 0.3 mm 3 mps 696 mmHg 47%
    12:00 +30°C° 0.3 mm 3 mps 696 mmHg 46%
    13:00 +31°C° 0.3 mm 3 mps 695 mmHg 44%
    14:00 +30°C° 1.4 mm 3 mps 695 mmHg 45%
    15:00 +30°C° 1.4 mm 3 mps 695 mmHg 46%
    16:00 +30°C° 1.4 mm 3 mps 695 mmHg 47%
    17:00 +29°C° 3.5 mm 3 mps 695 mmHg 52%
    18:00 +27°C° 3.5 mm 4 mps 695 mmHg 57%
    19:00 +26°C° 3.5 mm 4 mps 695 mmHg 63%
    20:00 +25°C° 3.9 mm 4 mps 696 mmHg 66%
    21:00 +24°C° 3.9 mm 3 mps 696 mmHg 70%
    22:00 +22°C° 3.9 mm 3 mps 696 mmHg 73%
    23:00 +24°C° 0.2 mm 2 mps 696 mmHg 69%

    21 January, Sunday

    Time Temperature Precipitation Wind Pressure Humidity
    00:00 +24°C° 0.2 mm 2 mps 696 mmHg 65%
    01:00 +24°C° 0.2 mm 1 mps 695 mmHg 61%
    02:00 +24°C° 0 mm 1 mps 695 mmHg 60%
    03:00 +23°C° 0 mm 1 mps 695 mmHg 59%
    04:00 +23°C° 0 mm 1 mps 695 mmHg 58%
    05:00 +24°C° 0 mm 1 mps 695 mmHg 53%
    06:00 +25°C° 0 mm 1 mps 695 mmHg 48%
    07:00 +26°C° 0 mm 1 mps 696 mmHg 43%
    08:00 +27°C° 0 mm 2 mps 696 mmHg 42%
    09:00 +28°C° 0 mm 2 mps 696 mmHg 40%
    10:00 +29°C° 0 mm 3 mps 695 mmHg 38%
    11:00 +30°C° 0 mm 3 mps 695 mmHg 37%
    12:00 +30°C° 0 mm 3 mps 695 mmHg 36%
    13:00 +31°C° 0 mm 3 mps 694 mmHg 34%
    14:00 +31°C° 0.1 mm 3 mps 694 mmHg 35%
    15:00 +31°C° 0.1 mm 3 mps 694 mmHg 35%
    16:00 +33°C° 0.1 mm 3 mps 693 mmHg 35%
    17:00 +31°C° 0.4 mm 3 mps 694 mmHg 38%
    18:00 +30°C° 0.4 mm 2 mps 694 mmHg 42%
    19:00 +29°C° 0.4 mm 2 mps 694 mmHg 45%
    20:00 +28°C° 0.3 mm 2 mps 695 mmHg 47%
    21:00 +27°C° 0.3 mm 3 mps 695 mmHg 49%
    22:00 +27°C° 0.3 mm 3 mps 695 mmHg 51%
    23:00 +26°C° 0.3 mm 3 mps 695 mmHg 53%

    22 January, Monday

    Time Temperature Precipitation Wind Pressure Humidity
    00:00 +25°C° 0.3 mm 3 mps 694 mmHg 55%
    01:00 +24°C° 0.3 mm 3 mps 694 mmHg 57%
    02:00 +24°C° 0.1 mm 3 mps 694 mmHg 59%
    03:00 +23°C° 0.1 mm 2 mps 694 mmHg 61%
    04:00 +23°C° 0.1 mm 2 mps 693 mmHg 63%
    05:00 +24°C° 0 mm 2 mps 694 mmHg 58%
    06:00 +24°C° 0 mm 2 mps 694 mmHg 53%
    07:00 +25°C° 0 mm 2 mps 694 mmHg 48%
    08:00 +27°C° 0 mm 2 mps 694 mmHg 46%
    09:00 +28°C° 0 mm 2 mps 694 mmHg 43%
    10:00 +29°C° 0 mm 2 mps 694 mmHg 40%
    11:00 +30°C° 0 mm 2 mps 694 mmHg 38%
    12:00 +31°C° 0 mm 3 mps 693 mmHg 35%
    13:00 +33°C° 0 mm 3 mps 693 mmHg 33%
    14:00 +34°C° 0.1 mm 3 mps 693 mmHg 32%
    15:00 +34°C° 0.1 mm 3 mps 693 mmHg 31%
    16:00 +34°C° 0.1 mm 3 mps 693 mmHg 30%
    17:00 +32°C° 0.1 mm 2 mps 693 mmHg 33%
    18:00 +31°C° 0.1 mm 2 mps 693 mmHg 35%
    19:00 +30°C° 0.1 mm 2 mps 694 mmHg 38%
    20:00 +30°C° 0.1 mm 3 mps 694 mmHg 39%
    21:00 +29°C° 0.1 mm 3 mps 694 mmHg 41%
    22:00 +29°C° 0.1 mm 3 mps 694 mmHg 42%
    23:00 +28°C° 0.2 mm 3 mps 694 mmHg 44%
    Show more